Location: Unspecified
(0.0000°N, 0.0000°E)
Time: 14:37:04
(UTC+00:00)

Altair - Pass Details

Date: 29 October 2021
Orbit: 1502 x 1682 km, 47.2° (Epoch: 26 November)

Event Time Altitude Azimuth Distance (km) Brightness Sun altitude
Rises 19:51:00 0° 189° (S) 4,725 10.4 -30.8°
Reaches altitude 10° 19:55:56 10° 168° (SSE) 3,707 9.5 -32.0°
Enters shadow 19:59:13 15° 147° (SSE) 3,322 9.1 -32.8°
Maximum altitude 20:00:57 15° 135° (SE) 3,259 - -33.2°
Drops below altitude 10° 20:05:52 10° 101° (ESE) 3,657 - -34.4°
Sets 20:10:36 0° 80° (E) 4,627 - -35.5°
